Location: Orange Harbor Mobile Home Park
(26.6923°N, 81.7937°W)
Time: 08:40:06
(UTC+00:00)

Cosmos 1603 - Pass Details

Date: 19 September 2020
Orbit: 832 x 858 km, 71.0° (Epoch: 29 October)

Event Time Altitude Azimuth Distance (km) Brightness Sun altitude
Rises 01:15:59 0° 333° (NNW) 3,396 7.4 -24.8°
Reaches altitude 10° 01:18:30 10° 328° (NNW) 2,455 6.7 -25.3°
Maximum altitude 01:23:53 48° 255° (WSW) 1,082 4.5 -26.5°
Enters shadow 01:27:21 21° 191° (S) 1,787 5.3 -27.2°
